Погода в Бишкини

Украина / Сумская область     50°37′38″N   34°37′05″E
темп.,
°C
ветер,
м/с
пор.,
м/с
влажн.,
%
обл.,
%
осадки,
мм/ч
давл.,
гПа
погр.,
м
8 мая, сб
сб800:00+10ю41287100 1.6 1011494
03:00+10ююв51382100 4.0 1009425
06:00+10ююв6139484 0.5 1006493
09:00+11ю81490100 1.3 1005886
12:00+11юз61197100 7.9 1004652
15:00+11з61092100 9.2 1006758
18:00+7з81292100 0.2 1009941
21:00+5зсз81394100 0.3 1013980
9 мая, вс
вс900:00+4зсз6139176 0.1 1014593
03:00+4зсз512926 0.1 1016562
06:00+2зсз512913 0.0 1018446
09:00+7сз711650 0.0 10201054
12:00+10сз810505 0.0 10211876
15:00+12сз81046100 0.0 10222495
18:00+11ссз69566 0.0 10231607
21:00+6ссз37720 0.0 1026116
10 мая, пн
пн1000:00+4ссз37733 0.0 1027108
03:00+3ссз48765 0.0 1028119
06:00+3с36787 0.0 1030117
09:00+10с46590 0.0 1029456
12:00+13с56465 0.0 10291773
15:00+14с78475 0.0 10271703
18:00+13ссв69590 0.0 10271329
21:00+8с411789 0.0 1027209
11 мая, вт
вт1100:00+7ссв51374100 0.0 1026397
03:00+8ссв61465100 0.0 1025496
06:00+8ссв7146292 0.0 1024486
09:00+11ссв8136494 0.0 1023550
12:00+15св81167100 0.0 1022909
15:00+13всв597830 0.0 10221004
18:00+12всв5107993 0.1 1023645
21:00+9св359299 0.2 102281
12 мая, ср
ср1200:00+9всв51384100 0.0 1021555
03:00+6св398794 0.0 1021213
06:00+7всв5129157 0.0 1020387
09:00+11в71174100 0.0 10191338
12:00+9в71184100 0.1 10191072
15:00+10вюв81482100 0.3 10181317
18:00+9вюв71186100 0.2 1018899
21:00+9в61189100 0.3 1017569